THOR ABLESTAR R/B, 953

Orbit data source: Space-Track

THOR ABLESTAR R/B, 953 is space debris in LEO originally from a launch on Sun, 13 Dec 1964 UTC launched from the Air Force Western Test Range (AFWTR). Debris objects in space refer to the collection of defunct objects orbiting the Earth. Examples of debris include non-operational satellites, rocket bodies, and fragments generated from explosions, collisions, or faulty payload assembly.

Loading next visibility...
Identifier
953, 1964-083A
Orbit
LEO
Country
Flag of USUS
Related business
Manufacturer
Aerojet
Mission
Spacecraft
Bus & Motor
ABLESTAR, Unknown motor
Mass
~600 kg wet, 600 kg dry
Launch date (UTC)
1964-12-13 (61 years ago)
Launch vehicle
Unknown
Launch site
Air Force Western Test Range (AFWTR)
Object type
Payload
Rocket body
Debris
Shape & HBR
Unknown
Radar Cross Section
Large (>1 m²)

Expand to show TLE details & history
Last TLE update: 6 hours ago

TLE from 6 hours ago
0 THOR ABLESTAR R/B
1   953U 64083A   25298.47763984  .00000076  00000-0  90360-4 0  9997
2   953  90.0321 192.2967 0033178  46.0477 126.9202 13.58816251 16706
Epoch: 2025-10-25T11:27Z
TLE epoch observation values (Epoch: 2025-10-25T11:27:48.082Z)
Latitude
6.65341°
Longitude
166.24246°
Altitude
1,057.187 km
Speed
7.316 km/s
True Right ascension
00h 49m 12s
True Declination
6° 36' 56"
Sunlit
Object was in full shadow at epoch
Visualization orbit readout
Latitude
Unknown
Longitude
Unknown
Altitude
Unknown
Speed
Unknown
Apparent Right ascension
Unknown
Apparent Declination
Unknown
Sunlit
N/A
Visualization observer readout
Local Sidereal Time
12:40:40
Azimuth
Unknown
Elevation
Unknown
Doppler factor
Unknown
Orbital elements
Apogee altitude
1,061.636 km
Perigee altitude
1,012.432 km
Semi-major axis
7,415.171 km
Eccentricity
0.00332
Inclination
90.0321°
RAAN
192.2967°
Arg. of periapsis
46.0477°
True anomaly
127.2234°
Mean anomaly
126.9202°
Eccentric anomaly
127.07187°
Mean motion
3.39908 °/min
Orbital period
105.91 mins
BSTAR
0.00009036
Loading maneuver chart data...
Computing Atmospheric mass density...

Documentation

Showing up to 5 results
|